IONOSFERA-M 1

Last updated on Sun Jun 21 2026 00:02:53 GMT+0000 (Coordinated Universal Time)

1 61735U 24199A 26171.42878397 .00000023 00000+0 29904-4 0 9994 2 61735 98.7170 44.5668 0002042 106.2287 253.9115 14.22754851128166
UTC large
Height (km)
Speed (km/s)
/
Latitude / Longitude
Inclination (degrees)
Orbital Period (minutes)
Azimuth
Elevation
Range (km)
Doppler Factor

Next 0 passes for location: London (51.5072 / 0.1276)

No passes found over London.
IONOSFERA-M 1